ATLAS 5 CENTAUR DEB, 44691

Orbit data source: Space-Track

ATLAS 5 CENTAUR DEB, 44691 is space debris in HEO originally from a launch on Wed, 17 Oct 2018 UTC launched from the Air Force Eastern Test Range (AFETR). Debris objects in space refer to the collection of defunct objects orbiting the Earth. Examples of debris include non-operational satellites, rocket bodies, and fragments generated from explosions, collisions, or faulty payload assembly.

Loading next visibility...
Identifier
44691, 2018-079BD
Orbit
HEO
Country
Flag of USUS
Related business
Flag of USUnited Launch Alliance/Lockheed Martin (US)
Manufacturer
ULA Decatur
Mission
Spacecraft
Bus & Motor
Unknown
Mass
Unknown
Launch date (UTC)
2018-10-17 (7 years ago)
Launch vehicle
Unknown
Launch site
Air Force Eastern Test Range (AFETR)
Object type
Payload
Rocket body
Debris
Shape & HBR
Unknown shape, 1.1 m
Radar Cross Section
RCS unknown

Expand to show TLE details & history
Last TLE update: 6 days ago

TLE from 6 days ago
0 ATLAS 5 CENTAUR DEB
1 44691U 18079BD  25282.09143705 -.00000059  00000-0  00000+0 0  9991
2 44691  12.8262  74.6312 4469096 230.4739  80.7891  1.76823723 39741
Epoch: 2025-10-09T02:11Z
TLE epoch observation values (Epoch: 2025-10-09T02:11:40.161Z)
Latitude
-0.00004°
Longitude
23.72836°
Altitude
25,904.451 km
Speed
3.301 km/s
True Right ascension
04h 58m 24s
True Declination
0° 00' 00"
Sunlit
Object was in daylight at epoch
Visualization orbit readout
Latitude
Unknown
Longitude
Unknown
Altitude
Unknown
Speed
Unknown
Apparent Right ascension
Unknown
Apparent Declination
Unknown
Sunlit
N/A
Visualization observer readout
Local Sidereal Time
08:05:45
Azimuth
Unknown
Elevation
Unknown
Doppler factor
Unknown
Orbital elements
Apogee altitude
35,422.17 km
Perigee altitude
9,600.296 km
Semi-major axis
28,889.37 km
Eccentricity
0.44691
Inclination
12.8262°
RAAN
74.6312°
Arg. of periapsis
230.4739°
True anomaly
129.61376°
Mean anomaly
80.7891°
Eccentric anomaly
105.46771°
Mean motion
0.44201 °/min
Orbital period
814.45 mins
BSTAR
0
Loading maneuver chart data...
Computing Atmospheric mass density...

Documentation

Showing up to 5 results
|